Location: Riverton
(43.0250°N, 108.3790°W)
Time: 03:36:32
(UTC-06:00)

Amateur Radio Satellites - All Passes

Search period start: 26 May 2015 03:06
Search period end: 27 May 2015 03:06
Location: Riverton, 43.0250°N, 108.3790°W

Satellite Date Start Highest point End Downlink Frequencies (MHz)
Time Altitude Azimuth
SWISSCUBE 26 May 03:10:47 03:14:21 20° 268° (W) 03:17:47 437.505
KKS-1 26 May 03:22:34 03:27:03 79° 257° (WSW) 03:31:34 437.445
GONETS M04 26 May 03:30:50 03:35:26 15° 284° (WNW) 03:39:26
Gurwin Techsat 1B 26 May 03:32:10 03:37:24 56° 100° (E) 03:42:38 435.225
Cosmos 2499 26 May 03:39:51 03:46:44 56° 268° (W) 03:53:38 435.465 / 435.565
SO-50 26 May 03:50:48 03:55:18 50° 118° (ESE) 04:00:00 436.795
BEESAT 3 26 May 03:52:26 03:56:30 68° 239° (WSW) 04:00:29 437.485
PCSat 26 May 03:56:38 03:59:59 16° 323° (NW) 04:03:11 145.827
HORYU 2 26 May 04:06:17 04:09:27 20° 92° (E) 04:12:44 437.375
JAS-2 26 May 04:10:51 04:14:49 22° 92° (E) 04:18:58 435.910
VERMONT LUNAR 26 May 04:15:04 04:18:10 45° 170° (S) 04:21:15 437.305
AIST 2 26 May 04:22:39 04:26:51 60° 53° (NE) 04:30:58 435.215
ISS 26 May 04:27:39 04:30:06 19° 8° (N) 04:32:34 145.825
STARS 26 May 04:30:29 04:34:11 25° 266° (W) 04:37:49 437.465
Oscar 19 26 May 04:30:32 04:33:25 15° 300° (WNW) 04:36:05 437.125/150
PHONESAT 2.4 26 May 04:31:04 04:34:10 30° 160° (SSE) 04:37:15 2401.200-2431.200
BEESAT 2 26 May 04:40:13 04:43:43 27° 245° (WSW) 04:47:07 435.950
ITAMSAT 1 26 May 04:40:42 04:45:26 35° 292° (WNW) 04:50:06 435.822/435.867
MOZHAYETS 4 26 May 04:43:54 04:48:23 59° 74° (ENE) 04:52:55
AO-7 26 May 05:08:09 05:16:22 58° 102° (ESE) 05:24:36 29.400- 29.500
Gurwin Techsat 1B 26 May 05:13:04 05:17:01 21° 297° (WNW) 05:20:50 435.225
Cosmos 2491 26 May 05:20:19 05:25:37 18° 56° (ENE) 05:31:21 435.465 / 435.565
SO-50 26 May 05:32:06 05:36:07 26° 318° (NW) 05:40:11 436.795
STRAND 1 26 May 05:40:35 05:41:42 11° 58° (ENE) 05:43:06 437.568
HORYU 2 26 May 05:42:08 05:46:19 40° 289° (WNW) 05:50:26 437.375
VERMONT LUNAR 26 May 05:52:03 05:55:10 49° 187° (S) 05:58:16 437.305
JAS-2 26 May 05:55:21 06:00:16 43° 290° (WNW) 06:05:12 435.910
AIST 2 26 May 06:02:39 06:05:00 14° 249° (WSW) 06:07:08 435.215
ISS 26 May 06:03:52 06:07:04 50° 28° (NNE) 06:10:15 145.825
PHONESAT 2.4 26 May 06:08:35 06:11:59 56° 178° (S) 06:15:24 2401.200-2431.200
YUBILEINY 26 May 06:17:43 06:21:00 13° 75° (ENE) 06:24:56 435.215
CUBESAT XI-V 26 May 06:19:55 06:24:19 48° 72° (ENE) 06:28:48 437.345
MOZHAYETS 4 26 May 06:23:30 06:26:05 14° 271° (W) 06:28:28
PRISM 26 May 06:32:25 06:35:58 30° 69° (ENE) 06:39:34 437.425
CUTE-I 26 May 06:46:07 06:50:31 26° 93° (E) 06:55:02 437.470
M-CUBED/EXP-1 PRIME 26 May 06:54:08 06:58:04 39° 67° (ENE) 07:01:46 437.505
AO-7 26 May 07:01:27 07:08:53 36° 301° (WNW) 07:16:10 29.400- 29.500
AUBIESAT-1 26 May 07:03:11 07:07:08 43° 68° (ENE) 07:10:50 437.475
Cubesat XI-IV 26 May 07:06:02 07:11:02 39° 97° (E) 07:16:05 437.490
STRAND 1 26 May 07:15:03 07:20:08 77° 74° (ENE) 07:25:16 437.568
Cosmos 2491 26 May 07:15:24 07:24:18 79° 81° (E) 07:33:07 435.465 / 435.565
VERMONT LUNAR 26 May 07:29:30 07:32:01 21° 203° (SSW) 07:34:30 437.305
ISS 26 May 07:40:41 07:43:18 22° 224° (SW) 07:45:53 145.825
PHONESAT 2.4 26 May 07:46:38 07:49:54 40° 194° (SSW) 07:53:10 2401.200-2431.200
CUBESAT XI-V 26 May 07:58:57 08:02:06 18° 270° (W) 08:05:07 437.345
YUBILEINY 26 May 08:07:43 08:16:24 71° 94° (E) 08:25:07 435.215
PRISM 26 May 08:08:09 08:11:27 23° 266° (W) 08:14:42 437.425
AIST 1 26 May 08:21:03 08:25:26 72° 81° (E) 08:29:49
CUTE-I 26 May 08:25:44 08:30:47 43° 291° (WNW) 08:35:49 437.470
M-CUBED/EXP-1 PRIME 26 May 08:30:00 08:33:02 18° 261° (W) 08:35:49 437.505
HO-68 26 May 08:35:24 08:39:42 17° 87° (E) 08:44:23 435.675
AUBIESAT-1 26 May 08:39:17 08:42:04 17° 262° (W) 08:44:35 437.475
Cubesat XI-IV 26 May 08:46:25 08:51:01 29° 294° (WNW) 08:55:32 437.490
DOVE 4 26 May 08:49:50 08:52:58 17° 87° (E) 08:56:13 437.250
STRAND 1 26 May 08:57:36 09:00:02 13° 273° (W) 09:02:12 437.568
Cosmos 2491 26 May 09:13:46 09:20:17 23° 280° (W) 09:26:23 435.465 / 435.565
BRITE-PL 26 May 09:14:21 09:20:03 69° 100° (E) 09:25:29 437.365/2234.400
PCSat 26 May 09:14:38 09:18:31 20° 41° (NE) 09:22:32 145.827
RS-15 26 May 09:17:09 09:27:27 53° 113° (ESE) 09:38:08 29.354- 29.394
GOMX 1 26 May 09:21:23 09:26:40 51° 98° (E) 09:31:41 467.674
PHONESAT 2.4 26 May 09:25:34 09:27:31 14° 209° (SSW) 09:29:26 2401.200-2431.200
ANTELSAT 26 May 09:32:43 09:34:41 13° 62° (ENE) 09:36:50 437.575/2403.000
CANX-2 26 May 09:41:32 09:45:40 52° 99° (E) 09:49:47 2200.000
CUTE 1.7 + AOD 2 26 May 09:45:13 09:49:20 51° 99° (E) 09:53:27 437.475
Oscar 11 26 May 09:51:05 09:53:41 16° 90° (E) 09:56:26 145.826/435.025
Cosmos 2504 26 May 09:53:33 10:00:48 36° 88° (E) 10:07:48 435.465 / 435.565
AIST 1 26 May 10:01:54 10:02:33 10° 276° (W) 10:02:55
TIGRISAT 26 May 10:03:54 10:07:39 25° 67° (ENE) 10:11:26 435.000
YUBILEINY 26 May 10:06:54 10:14:09 27° 296° (WNW) 10:21:09 435.215
SEEDS 26 May 10:09:03 10:13:16 80° 104° (ESE) 10:17:25 437.485
CINEMA 3 26 May 10:10:01 10:14:38 48° 98° (E) 10:19:03 145.822/145.860
UWE-3 26 May 10:19:52 10:23:24 24° 92° (E) 10:26:56 435.000/436.395/437.385
HO-68 26 May 10:21:15 10:28:28 86° 287° (WNW) 10:35:37 435.675
BUGSAT 1 26 May 10:22:54 10:24:08 11° 62° (ENE) 10:25:34 437.445
UNISAT 6 26 May 10:23:19 10:27:39 38° 71° (ENE) 10:31:58 437.425
COMPASS 1 26 May 10:23:35 10:27:45 87° 284° (WNW) 10:31:54 437.405
DOVE 4 26 May 10:26:09 10:31:16 60° 287° (WNW) 10:36:05 437.250
FUNcube-1 26 May 10:32:00 10:35:32 24° 93° (E) 10:39:03 145.935
QB50P1 26 May 10:35:27 10:38:48 23° 67° (ENE) 10:42:13 145.935-145.965
AAUSAT CUBESAT 2 26 May 10:36:25 10:40:34 73° 284° (WNW) 10:44:40 437.432
POLYITAN 1 26 May 10:36:55 10:40:21 24° 67° (ENE) 10:43:52 437.675
SO-50 26 May 10:42:10 10:44:33 13° 31° (NNE) 10:47:05 436.795
BRITE-PL 26 May 10:53:59 10:57:59 20° 298° (WNW) 11:01:44 437.365/2234.400
PCSat 26 May 10:57:12 11:02:39 80° 240° (WSW) 11:08:03 145.827
GOMX 1 26 May 11:00:11 11:04:25 23° 296° (WNW) 11:08:22 467.674
ANTELSAT 26 May 11:06:12 11:10:55 79° 258° (WSW) 11:15:35 437.575/2403.000
NANOSAT C BR1 26 May 11:06:12 11:10:18 47° 72° (ENE) 11:14:27 145.865
CUBEBUG 2 26 May 11:06:44 11:11:16 85° 284° (WNW) 11:15:35 437.445
DELFI C3 26 May 11:08:42 11:12:45 85° 101° (ESE) 11:16:46 145.870
ZACube-1 26 May 11:11:40 11:16:02 69° 101° (E) 11:20:15 437.345
HUMSAT D 26 May 11:12:12 11:15:53 30° 95° (E) 11:19:34 437.325/437.525
QB50P2 26 May 11:13:32 11:17:45 59° 74° (ENE) 11:22:01 145.880/145.840
UKube-1 26 May 11:15:17 11:19:10 32° 96° (E) 11:23:06 .
CANX-2 26 May 11:18:43 11:21:13 15° 295° (WNW) 11:23:34 2200.000
CUTE 1.7 + AOD 2 26 May 11:22:21 11:24:53 15° 295° (WNW) 11:27:15 437.475
DX 1 26 May 11:22:45 11:26:56 41° 98° (E) 11:31:06 434.975-435.025
POPSAT HIP 1 26 May 11:25:55 11:30:12 78° 76° (ENE) 11:34:32 437.405
Oscar 11 26 May 11:26:01 11:30:11 47° 288° (WNW) 11:34:17 145.826/435.025
DUCHIFAT 1 26 May 11:28:28 11:32:44 82° 76° (ENE) 11:37:03 145.980
RS-15 26 May 11:29:25 11:40:01 51° 318° (NW) 11:50:54 29.354- 29.394
VELOX 1 26 May 11:34:15 11:38:06 28° 95° (E) 11:42:00 145.980
ESTCUBE 1 26 May 11:34:48 11:37:49 18° 91° (E) 11:40:58 437.505/2401.250
CUBEBUG 1 26 May 11:35:29 11:38:04 15° 90° (E) 11:40:49 437.445
TIGRISAT 26 May 11:39:51 11:44:14 37° 263° (W) 11:48:33 435.000
Cosmos 2504 26 May 11:46:01 11:54:04 49° 285° (WNW) 12:01:33 435.465 / 435.565
SEEDS 26 May 11:47:44 11:48:29 10° 298° (WNW) 11:49:01 437.485
CINEMA 3 26 May 11:48:01 11:51:28 20° 296° (WNW) 11:54:42 145.822/145.860
BUGSAT 1 26 May 11:54:54 11:59:02 74° 257° (WSW) 12:03:16 437.445
UWE-3 26 May 11:56:03 12:00:01 32° 290° (WNW) 12:03:49 435.000/436.395/437.385
UNISAT 6 26 May 12:00:46 12:04:33 23° 267° (W) 12:08:13 437.425
AISAT 26 May 12:05:13 12:09:42 63° 101° (E) 12:14:08 437.250
FUNcube-1 26 May 12:08:03 12:11:54 30° 291° (WNW) 12:15:36 145.935
HO-68 26 May 12:10:32 12:15:20 19° 306° (NW) 12:19:50 435.675
QB50P1 26 May 12:10:36 12:14:30 33° 263° (W) 12:18:25 145.935-145.965
POLYITAN 1 26 May 12:12:14 12:16:08 32° 264° (W) 12:20:01 437.675
CUSAT 1 26 May 12:17:36 12:22:51 22° 82° (E) 12:28:51 437.405
SPROUT 26 May 12:17:53 12:19:26 12° 88° (E) 12:21:12 437.525
50 SAT 26 May 12:18:10 12:22:04 80° 284° (WNW) 12:25:55 437.505
SO-50 26 May 12:21:16 12:26:11 59° 52° (NE) 12:31:03 436.795
Oscar 19 26 May 12:30:13 12:33:30 18° 62° (ENE) 12:36:57 437.125/150
GONETS M04 26 May 12:38:27 12:45:14 27° 82° (E) 12:52:19
TISAT 1 26 May 12:43:00 12:45:37 16° 90° (E) 12:48:24 437.305
NANOSAT C BR1 26 May 12:43:42 12:46:26 16° 270° (W) 12:49:02 145.865
PCSat 26 May 12:44:11 12:45:18 10° 257° (WSW) 12:46:02 145.827
HUMSAT D 26 May 12:48:10 12:51:32 23° 292° (WNW) 12:54:45 437.325/437.525
ZACube-1 26 May 12:49:56 12:51:51 12° 298° (WNW) 12:53:34 437.345
UKube-1 26 May 12:51:37 12:55:12 25° 293° (WNW) 12:58:41 .
QB50P2 26 May 12:52:00 12:54:06 13° 272° (W) 12:55:59 145.880/145.840
DX 1 26 May 12:59:40 13:02:55 20° 295° (WNW) 13:06:04 434.975-435.025
CUBEBUG 1 26 May 13:10:27 13:14:49 52° 287° (WNW) 13:19:07 437.445
ESTCUBE 1 26 May 13:10:37 13:14:59 47° 288° (WNW) 13:19:19 437.505/2401.250
VELOX 1 26 May 13:10:43 13:14:38 29° 292° (WNW) 13:18:28 145.980
Gurwin Techsat 1B 26 May 13:17:34 13:20:10 14° 60° (ENE) 13:23:00 435.225
DANDE 26 May 13:22:14 13:28:57 48° 90° (E) 13:36:57 436.750
SWISSCUBE 26 May 13:34:02 13:34:41 10° 86° (E) 13:35:39 437.505
AISAT 26 May 13:43:15 13:45:49 15° 297° (WNW) 13:48:14 437.250
RS-15 26 May 13:47:09 13:55:56 25° 350° (N) 14:04:56 29.354- 29.394
SPROUT 26 May 13:51:43 13:56:02 64° 286° (WNW) 14:00:18 437.525
CUSAT 1 26 May 13:57:13 14:04:35 83° 281° (W) 14:12:59 437.405
SO-50 26 May 14:02:47 14:06:21 19° 249° (WSW) 14:09:44 436.795
Oscar 19 26 May 14:07:12 14:12:22 66° 258° (WSW) 14:17:35 437.125/150
TISAT 1 26 May 14:17:35 14:21:42 46° 288° (WNW) 14:25:46 437.305
AO-7 26 May 14:18:56 14:24:25 21° 50° (NE) 14:30:15 29.400- 29.500
ITAMSAT 1 26 May 14:20:06 14:25:04 51° 71° (ENE) 14:30:06 435.822/435.867
JAS-2 26 May 14:26:04 14:29:06 14° 60° (ENE) 14:32:19 435.910
Cosmos 2499 26 May 14:26:09 14:31:47 22° 84° (E) 14:37:27 435.465 / 435.565
GONETS M04 26 May 14:32:36 14:41:24 69° 281° (WNW) 14:50:16
ITUPSAT 1 26 May 14:52:01 14:56:46 60° 101° (ESE) 15:01:30 437.325
Gurwin Techsat 1B 26 May 14:54:11 14:59:30 86° 256° (WSW) 15:04:52 435.225
BEESAT 26 May 15:00:04 15:04:51 74° 102° (ESE) 15:09:37 436.000
HORYU 2 26 May 15:05:34 15:08:57 22° 66° (ENE) 15:12:25 437.375
DANDE 26 May 15:05:34 15:12:25 40° 293° (WNW) 15:20:13 436.750
SWISSCUBE 26 May 15:08:29 15:13:17 85° 284° (WNW) 15:18:04 437.505
KKS-1 26 May 15:13:44 15:16:49 19° 91° (E) 15:20:03 437.445
O/OREOS (USA 219) 26 May 15:26:24 15:29:31 19° 102° (ESE) 15:32:47 437.305
CUSAT 1 26 May 15:43:10 15:48:47 20° 304° (WNW) 15:54:25 437.405
ITAMSAT 1 26 May 16:01:03 16:04:56 20° 269° (W) 16:08:41 435.822/435.867
RS-15 26 May 16:03:31 16:13:08 31° 24° (NNE) 16:23:19 29.354- 29.394
JAS-2 26 May 16:06:55 16:13:39 83° 76° (ENE) 16:19:37 435.910
AO-7 26 May 16:07:51 16:16:08 81° 70° (ENE) 16:24:31 29.400- 29.500
Cosmos 2499 26 May 16:16:12 16:24:21 73° 280° (W) 16:31:55 435.465 / 435.565
STARS 26 May 16:18:20 16:22:43 55° 100° (E) 16:27:03 437.465
ITUPSAT 1 26 May 16:31:07 16:34:14 17° 297° (WNW) 16:37:11 437.325
GONETS M04 26 May 16:35:29 16:40:24 15° 306° (NW) 16:44:47
Gurwin Techsat 1B 26 May 16:39:05 16:40:24 11° 275° (W) 16:41:20 435.225
BEESAT 26 May 16:39:37 16:42:10 14° 299° (WNW) 16:44:31 436.000
MOZHAYETS 4 26 May 16:39:51 16:41:51 13° 88° (E) 16:44:05
HORYU 2 26 May 16:41:09 16:45:23 39° 262° (W) 16:49:35 437.375
SWISSCUBE 26 May 16:49:06 16:50:28 11° 301° (WNW) 16:51:35 437.505
KKS-1 26 May 16:49:27 16:53:43 43° 289° (WNW) 16:57:56 437.445
Cubesat XI-IV 26 May 16:54:02 16:54:58 11° 56° (ENE) 16:56:12 437.490
O/OREOS (USA 219) 26 May 17:04:20 17:08:40 43° 299° (WNW) 17:12:59 437.305
BEESAT 3 26 May 17:47:14 17:49:52 17° 112° (ESE) 17:52:37 437.485
JAS-2 26 May 17:55:24 17:59:22 16° 271° (W) 18:02:48 435.910
STARS 26 May 17:56:00 17:58:46 16° 296° (WNW) 18:01:20 437.465
AO-7 26 May 18:03:43 18:09:59 22° 270° (W) 18:15:55 29.400- 29.500
CUTE-I 26 May 18:08:45 18:13:46 46° 70° (ENE) 18:18:53 437.470
Cosmos 2499 26 May 18:14:58 18:19:01 14° 302° (WNW) 18:22:30 435.465 / 435.565
MOZHAYETS 4 26 May 18:15:04 18:19:36 65° 286° (WNW) 18:24:07
RS-15 26 May 18:16:23 18:28:00 74° 52° (NE) 18:40:07 29.354- 29.394
YUBILEINY 26 May 18:17:02 18:24:50 36° 69° (ENE) 18:32:46 435.215
CUBESAT XI-V 26 May 18:17:47 18:19:17 12° 86° (E) 18:21:03 437.345
Cosmos 2491 26 May 18:24:59 18:30:06 18° 78° (ENE) 18:35:45 435.465 / 435.565
Cubesat XI-IV 26 May 18:28:57 18:34:13 71° 73° (ENE) 18:39:33 437.490
BEESAT 2 26 May 18:34:01 18:37:54 42° 118° (ESE) 18:41:51 435.950
BRITE-PL 26 May 18:51:02 18:52:59 12° 58° (ENE) 18:55:15 437.365/2234.400
HO-68 26 May 19:06:28 19:10:35 17° 53° (NE) 19:14:59 435.675
BEESAT 3 26 May 19:23:32 19:27:31 48° 308° (NW) 19:31:32 437.485
STRAND 1 26 May 19:25:15 19:29:20 24° 93° (E) 19:33:32 437.568
Cosmos 2504 26 May 19:47:37 19:48:53 11° 54° (NE) 19:50:39 435.465 / 435.565
PRISM 26 May 19:48:31 19:52:28 42° 99° (E) 19:56:27 437.425
CUTE-I 26 May 19:49:52 19:54:08 23° 268° (W) 19:58:18 437.470
CUBESAT XI-V 26 May 19:52:39 19:57:22 76° 284° (WNW) 20:02:04 437.345
DOVE 4 26 May 19:55:48 19:59:30 21° 64° (ENE) 20:03:26 437.250
AIST 2 26 May 19:59:16 20:03:33 86° 303° (WNW) 20:07:52 435.215
M-CUBED/EXP-1 PRIME 26 May 20:09:35 20:12:04 20° 100° (E) 20:14:38 437.505
Cubesat XI-IV 26 May 20:11:49 20:14:58 15° 272° (W) 20:17:53 437.490
BEESAT 2 26 May 20:12:49 20:16:10 23° 317° (NW) 20:19:30 435.950
YUBILEINY 26 May 20:13:41 20:22:01 52° 270° (W) 20:30:16 435.215
Cosmos 2491 26 May 20:17:01 20:25:50 87° 98° (E) 20:34:44 435.465 / 435.565
AUBIESAT-1 26 May 20:17:56 20:20:33 22° 100° (E) 20:23:14 437.475
BRITE-PL 26 May 20:25:29 20:30:35 80° 76° (ENE) 20:36:07 437.365/2234.400
RS-15 26 May 20:29:37 20:39:46 35° 253° (WSW) 20:49:54 29.354- 29.394
GOMX 1 26 May 20:29:38 20:34:41 59° 73° (ENE) 20:40:02 467.674
CUBEBUG 2 26 May 20:32:27 20:33:50 11° 61° (ENE) 20:35:26 437.445
CANX-2 26 May 20:35:15 20:39:16 42° 72° (ENE) 20:43:19 2200.000
CUTE 1.7 + AOD 2 26 May 20:38:52 20:42:52 41° 72° (ENE) 20:46:54 437.475
Oscar 11 26 May 20:47:21 20:49:49 15° 64° (ENE) 20:52:26 145.826/435.025
HO-68 26 May 20:50:08 20:57:19 78° 72° (ENE) 21:04:31 435.675
AIST 1 26 May 20:51:34 20:55:31 39° 92° (E) 20:59:32
SEEDS 26 May 21:01:44 21:05:54 61° 75° (ENE) 21:10:04 437.485
STRAND 1 26 May 21:03:53 21:08:45 43° 290° (WNW) 21:13:35 437.568
CINEMA 3 26 May 21:11:50 21:16:39 51° 73° (ENE) 21:21:33 145.822/145.860
COMPASS 1 26 May 21:15:23 21:19:34 71° 74° (ENE) 21:23:44 437.405
UWE-3 26 May 21:17:41 21:21:26 25° 68° (ENE) 21:25:16 435.000/436.395/437.385
PRISM 26 May 21:24:47 21:27:39 18° 295° (WNW) 21:30:24 437.425
AAUSAT CUBESAT 2 26 May 21:27:45 21:31:55 83° 77° (ENE) 21:36:06 437.432
FUNcube-1 26 May 21:28:31 21:32:11 24° 67° (ENE) 21:35:54 145.935
DOVE 4 26 May 21:31:47 21:36:49 57° 261° (W) 21:42:04 437.250
Cosmos 2504 26 May 21:37:01 21:44:12 64° 78° (ENE) 21:51:21 435.465 / 435.565
AIST 2 26 May 21:40:27 21:42:49 14° 324° (NW) 21:45:06 435.215
M-CUBED/EXP-1 PRIME 26 May 21:44:19 21:46:57 22° 296° (WNW) 21:49:32 437.505
AUBIESAT-1 26 May 21:52:47 21:55:19 20° 297° (WNW) 21:57:47 437.475
DELFI C3 26 May 21:56:44 22:00:41 57° 74° (ENE) 22:04:39 145.870
HUMSAT D 26 May 22:04:54 22:08:29 26° 69° (ENE) 22:12:06 437.325/437.525
CUBEBUG 2 26 May 22:05:04 22:09:51 88° 85° (E) 22:14:39 437.445
BRITE-PL 26 May 22:07:21 22:09:58 13° 276° (W) 22:12:21 437.365/2234.400
ZACube-1 26 May 22:07:56 22:12:28 62° 74° (ENE) 22:17:01 437.345
GOMX 1 26 May 22:09:36 22:13:18 19° 272° (W) 22:16:56 467.674
UKube-1 26 May 22:11:03 22:14:51 31° 69° (ENE) 22:18:43 .
CANX-2 26 May 22:12:30 22:15:26 17° 269° (W) 22:18:15 2200.000
CUTE 1.7 + AOD 2 26 May 22:16:03 22:19:01 18° 269° (W) 22:21:51 437.475
Cosmos 2491 26 May 22:17:34 22:24:07 21° 300° (WNW) 22:30:21 435.465 / 435.565
DX 1 26 May 22:19:10 22:23:14 41° 71° (ENE) 22:27:23 434.975-435.025
Oscar 11 26 May 22:21:21 22:25:36 54° 260° (W) 22:29:52 145.826/435.025
AIST 1 26 May 22:30:24 22:33:24 18° 291° (WNW) 22:36:19
VELOX 1 26 May 22:32:50 22:36:38 29° 68° (ENE) 22:40:30 145.980
CUBEBUG 1 26 May 22:33:06 22:35:35 15° 64° (ENE) 22:38:15 437.445
ESTCUBE 1 26 May 22:35:41 22:38:48 19° 65° (ENE) 22:42:02 437.505/2401.250
SEEDS 26 May 22:40:28 22:42:11 12° 272° (W) 22:43:39 437.485
HO-68 26 May 22:40:41 22:45:53 20° 271° (W) 22:50:48 435.675
GONETS M04 26 May 22:47:39 22:51:21 14° 52° (NE) 22:55:38
CINEMA 3 26 May 22:50:26 22:54:10 20° 270° (W) 22:57:46 145.822/145.860
UWE-3 26 May 22:53:27 22:57:48 37° 264° (W) 23:02:08 435.000/436.395/437.385
CUSAT 1 26 May 22:55:17 22:59:43 17° 54° (NE) 23:03:55 437.405
COMPASS 1 26 May 22:55:20 22:55:48 10° 273° (W) 22:56:00 437.405
ANTELSAT 26 May 22:58:25 23:01:33 19° 91° (E) 23:04:45 437.575/2403.000
50 SAT 26 May 23:03:19 23:07:17 64° 75° (ENE) 23:11:14 437.505
AISAT 26 May 23:03:42 23:08:05 63° 74° (ENE) 23:12:33 437.250
FUNcube-1 26 May 23:04:06 23:08:20 36° 263° (W) 23:12:33 145.935
POPSAT HIP 1 26 May 23:12:19 23:13:53 12° 88° (E) 23:15:41 437.405
SPROUT 26 May 23:13:46 23:15:12 12° 62° (ENE) 23:16:50 437.525
DUCHIFAT 1 26 May 23:14:19 23:15:59 12° 88° (E) 23:17:53 145.980
TIGRISAT 26 May 23:30:37 23:34:48 41° 98° (E) 23:38:52 435.000
Cosmos 2504 26 May 23:31:35 23:37:01 23° 277° (W) 23:42:10 435.465 / 435.565
DELFI C3 26 May 23:34:41 23:36:14 12° 272° (W) 23:37:34 145.870
TISAT 1 26 May 23:36:42 23:39:03 15° 64° (ENE) 23:41:34 437.305
BUGSAT 1 26 May 23:37:28 23:39:59 16° 90° (E) 23:42:40 437.445
HUMSAT D 26 May 23:40:21 23:44:09 29° 265° (W) 23:47:55 437.325/437.525
CUBEBUG 2 26 May 23:46:44 23:47:17 10° 275° (W) 23:47:29 437.445
ZACube-1 26 May 23:46:45 23:49:17 14° 272° (W) 23:51:36 437.345
UKube-1 26 May 23:47:26 23:51:01 24° 266° (W) 23:54:34 .
UNISAT 6 26 May 23:50:51 23:55:16 72° 102° (ESE) 23:59:33 437.425
QB50P1 26 May 23:54:33 23:58:29 35° 97° (E) 00:02:25 145.935-145.965
POLYITAN 1 26 May 23:56:26 00:00:26 37° 97° (E) 00:04:25 437.675
DX 1 26 May 23:56:32 23:59:43 19° 268° (W) 00:02:47 434.975-435.025
PCSat 27 May 00:01:12 00:02:10 11° 103° (ESE) 00:03:31 145.827
DANDE 27 May 00:03:59 00:11:32 43° 68° (ENE) 00:17:42 436.750
CUBEBUG 1 27 May 00:07:16 00:11:33 56° 260° (W) 00:15:53 437.445
VELOX 1 27 May 00:09:19 00:13:10 28° 265° (W) 00:16:59 145.980
ESTCUBE 1 27 May 00:11:05 00:15:23 45° 262° (W) 00:19:42 437.505/2401.250
ISS 27 May 00:19:35 00:22:48 65° 144° (SE) 00:26:02 145.825
NANOSAT C BR1 27 May 00:25:43 00:30:01 78° 103° (ESE) 00:34:16 145.865
BEESAT 27 May 00:33:19 00:34:54 12° 60° (ENE) 00:36:43 436.000
QB50P2 27 May 00:33:39 00:37:58 83° 284° (WNW) 00:42:14 145.880/145.840
ANTELSAT 27 May 00:34:26 00:38:33 39° 289° (WNW) 00:42:33 437.575/2403.000
CUSAT 1 27 May 00:36:33 00:44:00 86° 79° (ENE) 00:49:44 437.405
SWISSCUBE 27 May 00:40:40 00:43:16 15° 62° (ENE) 00:46:03 437.505
50 SAT 27 May 00:41:46 00:42:29 10° 272° (W) 00:42:56 437.505
GONETS M04 27 May 00:41:47 00:50:32 64° 77° (ENE) 00:59:12
AISAT 27 May 00:43:00 00:45:11 13° 272° (W) 00:47:09 437.250
POPSAT HIP 1 27 May 00:46:01 00:50:16 62° 286° (WNW) 00:54:28 437.405
SPROUT 27 May 00:46:25 00:50:44 76° 258° (WSW) 00:55:06 437.525
DUCHIFAT 1 27 May 00:48:03 00:52:17 60° 286° (WNW) 00:56:28 145.980
TIGRISAT 27 May 01:08:04 01:11:16 19° 295° (WNW) 01:14:19 435.000
TISAT 1 27 May 01:10:15 01:14:25 55° 260° (W) 01:18:37 437.305
BUGSAT 1 27 May 01:11:38 01:15:47 48° 288° (WNW) 01:19:52 437.445
UNISAT 6 27 May 01:29:38 01:31:29 12° 298° (WNW) 01:33:09 437.425
QB50P1 27 May 01:30:49 01:34:10 22° 293° (WNW) 01:37:24 145.935-145.965
POLYITAN 1 27 May 01:32:52 01:36:07 21° 294° (WNW) 01:39:16 437.675
O/OREOS (USA 219) 27 May 01:34:00 01:38:16 43° 61° (ENE) 01:42:33 437.305
PCSat 27 May 01:39:25 01:44:50 81° 119° (ESE) 01:50:18 145.827
VERMONT LUNAR 27 May 01:44:36 01:46:01 12° 151° (SSE) 01:47:29 437.305
DANDE 27 May 01:47:30 01:54:42 39° 272° (W) 02:00:29 436.750
ISS 27 May 01:56:37 01:59:26 26° 342° (NNW) 02:02:15 145.825
ITUPSAT 1 27 May 01:59:39 02:04:23 77° 75° (ENE) 02:09:11 437.325
NANOSAT C BR1 27 May 02:03:58 02:05:17 11° 298° (WNW) 02:06:24 145.865
BEESAT 3 27 May 02:04:10 02:06:59 18° 40° (NE) 02:09:51 437.485
Cosmos 2499 27 May 02:06:21 02:12:53 39° 72° (ENE) 02:19:31 435.465 / 435.565
BEESAT 27 May 02:07:21 02:12:07 88° 260° (W) 02:16:54 436.000
KKS-1 27 May 02:12:59 02:16:13 20° 65° (ENE) 02:19:35 437.445
SWISSCUBE 27 May 02:15:55 02:20:38 67° 258° (WSW) 02:25:23 437.505
Oscar 19 27 May 02:18:00 02:22:50 40° 97° (E) 02:27:41 437.125/150
CUSAT 1 27 May 02:21:17 02:25:23 16° 282° (WNW) 02:28:43 437.405
ITAMSAT 1 27 May 02:33:06 02:36:18 17° 89° (E) 02:39:44 435.822/435.867
SO-50 27 May 02:38:42 02:41:11 15° 109° (ESE) 02:43:56 436.795
GONETS M04 27 May 02:39:34 02:46:49 29° 277° (W) 02:53:44
AIST 2 27 May 02:43:09 02:45:13 13° 35° (NE) 02:47:22 435.215
BEESAT 2 27 May 02:52:20 02:56:10 36° 49° (NE) 02:59:58 435.950
